CW9002 Weather Reports


Display with metric or nautical units.
time (UTC)temp
F
wind
direction
speed
MPH
gust
MPH
rain 1hr
in
rain 24hr
in
rain mn
in
humidity
%
barometer
mb
20260507200706 57 258 5.0 12.0 0.00 0.00 0.00 50 1023.7
20260507200206 57 278 5.0 12.0 0.00 0.00 0.00 49 1023.9
20260507193705 55 217 3.0 9.0 0.00 0.00 0.00 51 1024.1
20260507193206 55 289 2.0 9.0 0.00 0.00 0.00 51 1024.1
20260507190706 55 253 3.0 12.0 0.00 0.00 0.00 50 1024.2
20260507190206 56 211 4.0 12.0 0.00 0.00 0.00 47 1024.3
20260507180705 55 255 3.0 10.0 0.00 0.01 0.00 51 1024.5
20260507180205 55 317 4.0 15.0 0.00 0.01 0.00 50 1024.5
20260507173706 57 246 3.0 10.0 0.00 0.01 0.00 51 1024.9
20260507173205 56 263 3.0 10.0 0.00 0.01 0.00 53 1025.0
20260507170705 55 211 2.0 9.0 0.00 0.01 0.00 54 1025.3
20260507170206 54 256 3.0 9.0 0.00 0.01 0.00 53 1025.4
20260507163705 55 207 3.0 9.0 0.00 0.01 0.00 54 1025.5
20260507163205 53 242 2.0 13.0 0.00 0.01 0.00 54 1025.6
20260507160705 53 238 2.0 12.0 0.00 0.01 0.00 55 1025.9
20260507160206 53 311 2.0 8.0 0.00 0.01 0.00 56 1025.9
20260507153707 53 254 2.0 8.0 0.00 0.01 0.00 55 1025.9
20260507153205 52 199 3.0 8.0 0.00 0.01 0.00 54 1025.9
20260507150705 53 277 3.0 6.0 0.00 0.02 0.00 53 1026.2
20260507143705 53 249 3.0 6.0 0.00 0.02 0.00 54 1026.6
20260507140705 51 289 1.0 10.0 0.00 0.02 0.00 56 1026.9
20260507140206 50 228 3.0 10.0 0.00 0.02 0.00 58 1027.0
20260507133705 49 188 1.0 7.0 0.00 0.02 0.00 65 1027.2
20260507133205 49 216 3.0 7.0 0.00 0.02 0.00 63 1027.3
20260507130706 47 260 1.0 3.0 0.00 0.02 0.00 67 1027.1
20260507130205 47 269 1.0 3.0 0.00 0.02 0.00 68 1027.2
20260507123206 43 191 1.0 3.0 0.00 0.03 0.00 81 1027.3
20260507120706 40 155 0.0 0.0 0.00 0.03 0.00 87 1027.3
20260507120205 39 155 0.0 0.0 0.00 0.03 0.00 88 1027.2
20260507113706 38 155 0.0 0.0 0.00 0.03 0.00 89 1027.2
20260507110705 37 155 0.0 0.0 0.00 0.05 0.00 90 1026.7
20260507110205 37 155 0.0 0.0 0.00 0.05 0.00 90 1026.6
20260507103705 37 155 0.0 0.0 0.00 0.08 0.00 91 1026.5
20260507103205 37 155 0.0 0.0 0.00 0.09 0.00 91 1026.4
20260507100706 37 155 0.0 0.0 0.00 0.11 0.00 90 1026.1
20260507100206 37 155 0.0 0.0 0.00 0.11 0.00 90 1026.1
20260507093705 38 155 0.0 0.0 0.00 0.15 0.00 89 1026.0
20260507090207 39 155 0.0 0.0 0.00 0.17 0.00 87 1026.1
20260507083705 41 155 0.0 0.0 0.00 0.19 0.00 85 1025.9
20260507083205 41 155 0.0 0.0 0.00 0.19 0.00 85 1025.9
20260507080706 42 155 0.0 0.0 0.00 0.19 0.00 82 1025.9
20260507080206 42 155 0.0 0.0 0.00 0.19 0.00 82 1025.9
20260507073705 43 155 0.0 0.0 0.00 0.19 0.00 80 1025.9
20260507073205 43 155 0.0 0.0 0.00 0.19 0.00 80 1025.9
20260507070706 43 155 0.0 0.0 0.00 0.19 0.00 81 1025.5
20260507070205 43 155 0.0 0.0 0.00 0.19 0.00 80 1025.5
20260507063706 44 155 0.0 0.0 0.00 0.19 0.00 82 1025.8
20260507063205 44 155 0.0 0.0 0.00 0.19 0.00 81 1025.8
20260507060705 44 155 0.0 0.0 0.00 0.19 0.00 84 1026.0
20260507053705 45 155 0.0 0.0 0.00 0.19 0.00 83 1026.2
20260507053204 45 155 0.0 0.0 0.00 0.19 0.00 82 1026.3
20260507050706 45 148 0.0 0.0 0.00 0.19 0.00 83 1026.3
20260507050205 45 148 0.0 0.0 0.00 0.19 0.00 83 1026.3
20260507043204 45 151 1.0 2.0 0.00 0.19 0.00 84 1026.0
20260507040706 46 144 0.0 1.0 0.00 0.19 0.00 87 1026.1
20260507033704 46 144 0.0 0.0 0.00 0.19 0.19 86 1026.0
20260507033206 46 144 0.0 1.0 0.00 0.19 0.19 85 1026.1
20260507030705 46 144 0.0 3.0 0.00 0.19 0.19 86 1025.6
20260507030205 46 143 1.0 3.0 0.00 0.19 0.19 87 1025.4
20260507023205 47 192 0.0 1.0 0.00 0.19 0.19 93 1025.5
20260507020706 47 192 0.0 0.0 0.00 0.19 0.19 93 1024.9
20260507013706 47 192 0.0 0.0 0.00 0.19 0.19 93 1024.5
20260507010707 48 192 0.0 0.0 0.00 0.19 0.19 93 1024.6
20260507010206 48 192 0.0 0.0 0.00 0.19 0.19 92 1024.7
20260507003707 48 192 0.0 0.0 0.00 0.19 0.19 92 1024.8
20260507000706 48 192 0.0 1.0 0.00 0.19 0.19 92 1024.8
20260506233706 48 192 0.0 1.0 0.00 0.19 0.19 91 1024.5
20260506230707 48 175 1.0 2.0 0.00 0.19 0.19 91 1023.9
20260506230206 48 171 1.0 3.0 0.00 0.19 0.19 92 1023.7
20260506223706 48 166 0.0 3.0 0.00 0.19 0.19 92 1023.6
20260506223206 48 166 1.0 5.0 0.00 0.19 0.19 92 1023.6
20260506220706 49 192 1.0 3.0 0.00 0.19 0.19 93 1023.5
20260506220207 49 238 1.0 7.0 0.00 0.19 0.19 94 1023.4
20260506213706 49 266 1.0 2.0 0.00 0.19 0.19 95 1023.0
20260506213207 49 267 1.0 5.0 0.00 0.19 0.19 95 1022.8
20260506210706 49 262 0.0 2.0 0.00 0.19 0.19 95 1022.5
20260506210207 49 262 1.0 2.0 0.00 0.19 0.19 95 1022.3
20260506203706 49 222 0.0 6.0 0.00 0.19 0.19 96 1021.9
20260506203206 49 239 1.0 6.0 0.00 0.19 0.19 96 1021.8